Regional Weather Roundup
Issued by NWS

Home | Current Version | Previous Version | Graphics & Text | Print | Product List | Glossary On
Versions: 1 2 3 4 5 6 7 8 9 10 11 12 13 14 15 16 17 18 19 20 21 22 23 24 25 26 27 28 29 30 31 32 33 34 35 36 37 38 39 40 41 42 43 44 45 46 47 48 49 50
000
ASUS43 KBIS 021602
RWRND

NORTH DAKOTA REGIONAL WEATHER ROUNDUP
NATIONAL WEATHER SERVICE BISMARCK ND
1100 AM CDT WED SEP 02 2015

NOTE: "FAIR" INDICATES FEW OR NO CLOUDS BELOW 12,000 FEET WITH NO
SIGNIFICANT WEATHER AND/OR OBSTRUCTIONS TO VISIBILITY.


NDZ001>003-009>011-017-021700-
NORTHWEST NORTH DAKOTA

CITY           SKY/WX    TMP DP  RH WIND       PRES   REMARKS
WILLISTON      PTSUNNY   81  60  48 SE9       29.74F
MINOT          SUNNY     79  66  64 E8        29.76F
MINOT AFB      SUNNY     82  70  66 E7        29.75F
$$

NDZ018>021-031>035-040>046-021700-
SOUTHWEST NORTH DAKOTA

CITY           SKY/WX    TMP DP  RH WIND       PRES   REMARKS
BISMARCK       CLOUDY    71  67  87 E8        29.79F
DICKINSON      MOSUNNY   87  54  32 S12       29.79R
GARRISON         N/A     76  65  68 SE7       29.78F
HETTINGER ARPT SUNNY     82  56  40 SE10      29.83F
$$

NDZ004>008-012>016-024-026-027-054-021700-
NORTHEAST NORTH DAKOTA

CITY           SKY/WX    TMP DP  RH WIND       PRES   REMARKS
GRAND FORKS    SUNNY     78  67  68 S10       29.82S
GRND FRKS AFB  SUNNY     77  68  73 S9        29.82F
DEVILS LAKE    SUNNY     79  64  61 S10       29.81S
$$

NDZ022-023-025-028>030-036>039-047>053-021700-
SOUTHEAST NORTH DAKOTA

CITY           SKY/WX    TMP DP  RH WIND       PRES   REMARKS
FARGO          SUNNY     79  65  62 S9        29.82S
JAMESTOWN      SUNNY     77  68  73 S8        29.82S
$$




USA.gov is the U.S. government's official web portal to all federal, state and local government web resources and services.